Location: Olsztyn
(53.7767°N, 20.4765°E)
Time: 20:44:41
(UTC+02:00)

Envisat - Pass Details

Date: 27 February 2024
Orbit: 762 x 764 km, 98.3° (Epoch: 20 April)

Event Time Altitude Azimuth Distance (km) Brightness Sun altitude
Rises 03:11:12 0° 16° (NNE) 3,246 6.8 -29.7°
Reaches altitude 10° 03:13:32 10° 18° (NNE) 2,315 6.0 -29.4°
Enters shadow 03:18:15 70° 65° (ENE) 815 3.2 -28.8°
